| time (UTC) | temp F | wind direction | speed MPH | gust MPH | rain 1hr in | rain 24hr in | rain mn in | humidity % | barometer mb |
| 20260903164519 | 81 | 205 | 1.0 | 4.0 | 0.01 | 0.89 | 0.79 | 81 | 1015.5 |
| 20260903163015 | 81 | 251 | 0.0 | 5.0 | 0.01 | 0.89 | 0.79 | 81 | 1015.7 |
| 20260903161531 | 81 | 271 | 0.0 | 6.0 | 0.00 | 0.88 | 0.78 | 82 | 1016.1 |
| 20260903160033 | 80 | 243 | 1.0 | 4.0 | 0.00 | 0.88 | 0.78 | 82 | 1016.4 |
| 20260903154532 | 80 | 300 | 1.0 | 5.0 | 0.00 | 0.88 | 0.78 | 83 | 1016.4 |
| 20260903153031 | 79 | 298 | 0.0 | 6.0 | 0.00 | 0.88 | 0.78 | 85 | 1016.4 |
| 20260903151529 | 78 | 114 | 0.0 | 4.0 | 0.00 | 0.88 | 0.78 | 87 | 1016.5 |
| 20260903150027 | 78 | 275 | 0.0 | 4.0 | 0.00 | 0.88 | 0.78 | 89 | 1016.3 |
| 20260903144523 | 77 | 196 | 1.0 | 4.0 | 0.00 | 0.88 | 0.78 | 91 | 1016.2 |
| 20260903143031 | 75 | 321 | 0.0 | 5.0 | 0.00 | 0.88 | 0.78 | 94 | 1015.9 |
| 20260903141531 | 74 | 273 | 1.0 | 6.0 | 0.00 | 0.88 | 0.78 | 96 | 1016.1 |
| 20260903140034 | 74 | 167 | 1.0 | 11.0 | 0.00 | 0.88 | 0.78 | 96 | 1016.3 |
| 20260903134530 | 73 | 240 | 1.0 | 4.0 | 0.00 | 0.88 | 0.78 | 97 | 1015.9 |
| 20260903133029 | 73 | 61 | 0.0 | 3.0 | 0.00 | 0.88 | 0.78 | 97 | 1015.5 |
| 20260903131531 | 73 | 262 | 0.0 | 5.0 | 0.00 | 0.88 | 0.78 | 97 | 1015.3 |
| 20260903130004 | 72 | 345 | 0.0 | 4.0 | 0.00 | 0.88 | 0.78 | 97 | 1015.8 |
| 20260903124503 | 72 | 221 | 0.0 | 3.0 | 0.00 | 0.88 | 0.78 | 97 | 1015.8 |
| 20260903123005 | 72 | 352 | 0.0 | 5.0 | 0.00 | 0.88 | 0.78 | 97 | 1016.0 |
| 20260903121512 | 72 | 202 | 0.0 | 5.0 | 0.00 | 0.88 | 0.78 | 97 | 1016.0 |
| 20260903120008 | 71 | 167 | 0.0 | 2.0 | 0.01 | 0.88 | 0.78 | 97 | 1015.5 |
| 20260903114508 | 71 | 203 | 1.0 | 3.0 | 0.01 | 0.88 | 0.78 | 97 | 1016.7 |
| 20260903113009 | 71 | 293 | 0.0 | 4.0 | 0.01 | 0.88 | 0.78 | 97 | 1016.6 |
| 20260903111506 | 70 | 175 | 0.0 | 2.0 | 0.01 | 0.88 | 0.78 | 97 | 1017.3 |
| 20260903110004 | 70 | 282 | 0.0 | 2.0 | 0.02 | 0.87 | 0.77 | 97 | 1017.5 |
| 20260903104504 | 70 | 198 | 0.0 | 3.0 | 0.02 | 0.87 | 0.77 | 97 | 1017.2 |
| 20260903103018 | 70 | 259 | 0.0 | 2.0 | 0.03 | 0.87 | 0.77 | 97 | 1016.7 |
| 20260903101513 | 70 | 228 | 0.0 | 2.0 | 0.03 | 0.87 | 0.77 | 96 | 1016.9 |
| 20260903100014 | 70 | 229 | 0.0 | 2.0 | 0.02 | 0.85 | 0.75 | 96 | 1017.1 |
| 20260903094514 | 70 | 224 | 0.0 | 2.0 | 0.15 | 0.85 | 0.75 | 96 | 1017.2 |
| 20260903093014 | 70 | 260 | 0.0 | 2.0 | 0.34 | 0.84 | 0.74 | 96 | 1017.3 |
| 20260903091508 | 70 | 260 | 0.0 | 0.0 | 0.34 | 0.84 | 0.74 | 96 | 1017.4 |
| 20260903090008 | 70 | 260 | 0.0 | 0.0 | 0.33 | 0.83 | 0.73 | 96 | 1017.3 |
| 20260903084504 | 70 | 260 | 0.0 | 2.0 | 0.20 | 0.70 | 0.60 | 96 | 1019.2 |
| 20260903083021 | 70 | 312 | 0.0 | 4.0 | 0.01 | 0.50 | 0.40 | 96 | 1019.1 |
| 20260903081518 | 70 | 347 | 0.0 | 0.0 | 0.01 | 0.50 | 0.40 | 96 | 1017.1 |
| 20260903080018 | 70 | 347 | 0.0 | 0.0 | 0.01 | 0.50 | 0.40 | 96 | 1016.9 |
| 20260903074520 | 70 | 347 | 0.0 | 0.0 | 0.01 | 0.50 | 0.40 | 96 | 1017.1 |
| 20260903073023 | 70 | 347 | 0.0 | 0.0 | 0.01 | 0.49 | 0.39 | 96 | 1017.3 |
| 20260903071513 | 70 | 347 | 0.0 | 0.0 | 0.03 | 0.49 | 0.39 | 96 | 1017.1 |
| 20260903070016 | 70 | 347 | 0.0 | 1.0 | 0.15 | 0.49 | 0.39 | 95 | 1017.4 |
| 20260903064521 | 70 | 195 | 0.0 | 2.0 | 0.39 | 0.49 | 0.39 | 95 | 1017.5 |
| 20260903063023 | 70 | 195 | 0.0 | 1.0 | 0.38 | 0.48 | 0.38 | 95 | 1017.3 |
| 20260903061539 | 71 | 195 | 0.0 | 2.0 | 0.36 | 0.46 | 0.36 | 95 | 1017.7 |
| 20260903060026 | 71 | 195 | 0.0 | 1.0 | 0.24 | 0.34 | 0.24 | 95 | 1019.2 |
| 20260903054525 | 71 | 303 | 0.0 | 2.0 | 0.00 | 0.10 | 0.00 | 95 | 1019.4 |
| 20260903053020 | 71 | 326 | 0.0 | 0.0 | 0.00 | 0.10 | 0.00 | 95 | 1017.8 |
| 20260903051515 | 71 | 326 | 0.0 | 0.0 | 0.00 | 0.10 | 0.00 | 95 | 1017.7 |
| 20260903050016 | 71 | 326 | 0.0 | 2.0 | 0.00 | 0.10 | 0.00 | 95 | 1017.8 |
| 20260903044511 | 71 | 326 | 0.0 | 0.0 | 0.00 | 0.10 | 0.00 | 95 | 1017.7 |
| 20260903043010 | 71 | 326 | 0.0 | 0.0 | 0.00 | 0.10 | 0.00 | 95 | 1018.0 |
| 20260903041505 | 71 | 326 | 0.0 | 0.0 | 0.00 | 0.10 | 0.00 | 95 | 1018.2 |
| 20260903040004 | 71 | 326 | 0.0 | 0.0 | 0.00 | 0.10 | 0.00 | 95 | 1018.5 |
| 20260903034504 | 71 | 326 | 0.0 | 2.0 | 0.00 | 0.10 | 0.10 | 94 | 1018.6 |
| 20260903033026 | 71 | 326 | 0.0 | 0.0 | 0.00 | 0.10 | 0.10 | 94 | 1018.5 |
| 20260903031525 | 71 | 326 | 0.0 | 0.0 | 0.00 | 0.10 | 0.10 | 94 | 1018.7 |
| 20260903030018 | 71 | 326 | 0.0 | 0.0 | 0.00 | 0.10 | 0.10 | 94 | 1018.4 |
| 20260903024513 | 71 | 326 | 0.0 | 2.0 | 0.00 | 0.11 | 0.10 | 94 | 1018.7 |
| 20260903023010 | 71 | 326 | 0.0 | 0.0 | 0.00 | 0.11 | 0.10 | 94 | 1018.6 |
| 20260903021508 | 71 | 326 | 0.0 | 2.0 | 0.00 | 0.11 | 0.10 | 94 | 1018.2 |
| 20260903020010 | 71 | 342 | 0.0 | 1.0 | 0.00 | 0.11 | 0.10 | 95 | 1018.0 |
| 20260903014504 | 72 | 342 | 0.0 | 0.0 | 0.00 | 0.11 | 0.10 | 95 | 1018.1 |
| 20260903013027 | 72 | 342 | 0.0 | 1.0 | 0.00 | 0.11 | 0.10 | 95 | 1018.3 |
| 20260903011524 | 71 | 342 | 0.0 | 2.0 | 0.00 | 0.11 | 0.10 | 95 | 1018.4 |
| 20260903010017 | 72 | 342 | 0.0 | 2.0 | 0.00 | 0.11 | 0.10 | 95 | 1018.7 |
| 20260903004514 | 72 | 1 | 0.0 | 1.0 | 0.00 | 0.47 | 0.10 | 95 | 1018.4 |
| 20260903003015 | 72 | 1 | 0.0 | 0.0 | 0.00 | 0.74 | 0.10 | 95 | 1018.4 |
| 20260903001507 | 72 | 1 | 0.0 | 2.0 | 0.00 | 0.74 | 0.10 | 95 | 1018.3 |
| 20260903000008 | 72 | 1 | 0.0 | 2.0 | 0.00 | 0.74 | 0.10 | 95 | 1018.2 |
| 20260902234528 | 72 | 1 | 0.0 | 2.0 | 0.00 | 0.74 | 0.10 | 95 | 1018.0 |
| 20260902233030 | 72 | 1 | 0.0 | 0.0 | 0.00 | 0.74 | 0.10 | 95 | 1018.0 |
| 20260902231540 | 72 | 1 | 0.0 | 2.0 | 0.00 | 0.74 | 0.10 | 95 | 1018.1 |
| 20260902230023 | 72 | 1 | 0.0 | 2.0 | 0.00 | 0.74 | 0.10 | 95 | 1018.1 |
| 20260902224518 | 72 | 18 | 0.0 | 0.0 | 0.00 | 0.74 | 0.10 | 95 | 1018.3 |
| 20260902223027 | 72 | 18 | 0.0 | 0.0 | 0.00 | 0.74 | 0.10 | 95 | 1018.5 |
| 20260902221520 | 72 | 18 | 0.0 | 0.0 | 0.00 | 0.74 | 0.10 | 95 | 1018.8 |
| 20260902220010 | 72 | 18 | 0.0 | 2.0 | 0.00 | 0.74 | 0.10 | 95 | 1018.8 |
| 20260902214540 | 72 | 20 | 0.0 | 1.0 | 0.00 | 0.74 | 0.10 | 95 | 1018.5 |
| 20260902213030 | 72 | 20 | 0.0 | 1.0 | 0.00 | 0.74 | 0.10 | 95 | 1018.5 |
| 20260902211531 | 72 | 336 | 0.0 | 2.0 | 0.00 | 0.74 | 0.10 | 95 | 1018.2 |
| 20260902210025 | 73 | 336 | 0.0 | 0.0 | 0.00 | 0.74 | 0.10 | 95 | 1018.4 |
| 20260902204522 | 73 | 336 | 0.0 | 0.0 | 0.00 | 0.74 | 0.10 | 95 | 1018.5 |
| 20260902203018 | 72 | 336 | 0.0 | 0.0 | 0.00 | 0.74 | 0.10 | 95 | 1018.6 |
| 20260902201517 | 73 | 336 | 0.0 | 2.0 | 0.00 | 0.74 | 0.10 | 96 | 1018.4 |
| 20260902200031 | 73 | 334 | 0.0 | 2.0 | 0.00 | 0.74 | 0.10 | 96 | 1018.3 |
| 20260902194547 | 73 | 23 | 0.0 | 0.0 | 0.00 | 0.74 | 0.10 | 96 | 1018.4 |
| 20260902193030 | 72 | 23 | 0.0 | 2.0 | 0.00 | 0.74 | 0.10 | 95 | 1018.5 |
| 20260902191505 | 72 | 349 | 0.0 | 2.0 | 0.02 | 0.74 | 0.10 | 95 | 1018.6 |
| 20260902190006 | 72 | 349 | 0.0 | 0.0 | 0.04 | 0.74 | 0.10 | 95 | 1018.8 |
| 20260902184503 | 72 | 349 | 0.0 | 0.0 | 0.08 | 0.74 | 0.10 | 95 | 1019.1 |
| 20260902183028 | 72 | 349 | 0.0 | 0.0 | 0.10 | 0.74 | 0.10 | 94 | 1019.2 |
| 20260902181518 | 72 | 349 | 0.0 | 0.0 | 0.08 | 0.72 | 0.08 | 94 | 1019.0 |
| 20260902180014 | 73 | 349 | 0.0 | 0.0 | 0.06 | 0.70 | 0.06 | 93 | 1019.4 |
| 20260902174512 | 73 | 349 | 0.0 | 0.0 | 0.02 | 0.66 | 0.02 | 92 | 1019.9 |
| 20260902173013 | 73 | 349 | 0.0 | 0.0 | 0.00 | 0.64 | 0.00 | 90 | 1020.4 |
| 20260902171511 | 74 | 349 | 0.0 | 2.0 | 0.00 | 0.64 | 0.00 | 89 | 1020.4 |
| 20260902170012 | 74 | 356 | 0.0 | 0.0 | 0.00 | 0.64 | 0.00 | 90 | 1020.4 |